Meath Environmental Platform

Observations for Trim Patrick St

Time AQI Temp °C Hum % Pres Pa CO μg/m³ H₂S μg/m³ NO μg/m³ NO₂ μg/m³ O₃ μg/m³ SO₂ μg/m³ PM1 μg/m³ PM2.5 μg/m³ PM10 μg/m³
Monday 3 August 2026
11:51 2 28.5 38 69,100 0 0 1.53 2.86 77.8 9.61 4.57 11.08 12.19
11:50 2 28.6 42 69,118 0 0 1.84 6.45 80.96 9.3 5.43 10.8 11.88
11:49 2 28.6 41 69,136 0 0 1.77 6.46 75.96 9.44 4.57 10.13 11.15
11:48 2 28.6 44 69,134 0 0 1.98 5.6 75.44 9.46 2.86 9.15 10.06
11:47 2 28.7 41 69,132 0 0 1.81 9.16 93.96 10.15 2.86 8.57 9.43
11:46 2 28.7 43 69,128 0 0 2 8.72 73.16 9.17 3.71 9.16 10.08
11:45 2 28.7 43 69,118 0 0 2.01 11.65 87.1 8.69 5.43 11.53 12.68
11:44 2 28.8 44 69,110 0 0 2.09 8.73 73.87 9.87 5.43 11.46 12.6
11:43 2 28.8 39 69,128 0 0 1.78 9.41 109.44 9.87 4.57 10.22 11.25
11:42 2 28.8 43 69,120 0 0 2.1 5.69 69.68 8.51 5.43 9.95 10.94
11:41 2 28.8 38 69,139 0 0 1.75 5.61 74.79 9.16 4.57 11.08 12.18
11:40 2 28.8 43 69,136 0 0 2.14 7.97 75.67 9.46 4.57 9.18 10.09
11:39 2 28.8 44 69,126 0 0 2.13 12.45 70.78 8.26 3.71 9.93 10.92
11:38 2 28.7 43 69,112 0 0 2.07 12.03 71.87 8.87 3.71 9.95 10.95
11:37 2 28.7 41 69,098 0 0 1.83 13.48 79.71 8.67 4.57 10.12 11.13
11:36 2 28.6 46 69,104 0 0 2.18 11.03 70.68 8.94 3.71 9 9.9
11:35 2 28.6 43 69,116 0 0 1.91 19.31 99.12 9 3.71 9.95 10.95
11:34 2 28.5 46 69,098 0 0 2.1 11.41 79.03 8.12 2 8.2 9.02
11:33 2 28.4 45 69,108 0 0 2.01 11.52 75.85 8.38 4.57 10.61 11.67
11:32 2 28.2 45 69,090 0 0 2.01 15.36 114.47 7.4 2.86 9.04 9.95